• Join FlightAware (Why Join?)
  • Login
  • US Flag GB Flag 
18:26 EST


 

Airport Tracker/Info


-or-


 

Live Flight TrackerFlight Track Log ✈ ASA525 ✈ 10-Aug-2013 ✈ KBUR - KSEA

Flight Track Log - Related Links

Times and Time Zones

All times are in EDT time to prevent confusion due to time zone crossing. See the ASA525 flight status page for this flight to view local times or setup timezone preferences in your user account.

Time Position Orientation Groundspeed Altitude Reporting Facility
EDT Latitude Longitude Course Direction KTS MPH feet Rate Location/Type
14:09 34.1833 -118.3500 230° Southwest 165 190 2,100  Level Southern California TRACON
14:10 34.1336 -118.4208 230° Southwest 234 269 4,600 2,224 Climbing Los Angeles Center
14:11 34.1775 -118.4817 311° West 271 312 7,400 2,976 Climbing Los Angeles Center
14:12 34.2611 -118.5336 333° Northwest 285 328 10,800 2,758 Climbing Los Angeles Center
14:13 34.3403 -118.5806 334° Northwest 311 358 13,100 1,887 Climbing Los Angeles Center
14:14 34.4211 -118.6272 335° Northwest 322 371 14,700 968 Climbing Los Angeles Center
14:15 34.5022 -118.6764 333° Northwest 326 375 15,100 1,452 Climbing Los Angeles Center
14:16 34.5839 -118.7267 333° Northwest 330 380 17,700 2,226 Climbing Los Angeles Center
14:17 34.6694 -118.7800 333° Northwest 344 396 19,700 1,500 Climbing Los Angeles Center
14:18 34.7872 -118.8144 346° North 364 419 20,800 1,694 Climbing Los Angeles Center
14:19 34.8969 -118.8469 346° North 397 457 23,200 1,548 Climbing Los Angeles Center
14:20 35.0100 -118.8811 346° North 426 490 24,000 1,306 Climbing Los Angeles Center
14:21 35.1381 -118.9186 347° North 466 536 25,900 1,728 Climbing Los Angeles Center
14:22 35.2692 -118.9553 347° North 481 554 27,600 2,064 Climbing Los Angeles Center
14:24 35.4258 -119.0017 346° North 484 557 30,200 2,226 Climbing Los Angeles Center
14:25 35.5536 -119.0400 346° North 480 552 32,200 1,742 Climbing Los Angeles Center
14:26 35.6806 -119.0792 346° North 475 547 33,800 1,500 Climbing Los Angeles Center
14:27 35.8078 -119.1167 347° North 473 544 35,300 1,452 Climbing Los Angeles Center
14:28 35.9350 -119.1550 346° North 473 544 36,800 1,452 Climbing Los Angeles Center
14:29 36.0825 -119.2008 346° North 461 531 38,300 1,016 Climbing Los Angeles Center
14:30 36.2086 -119.2389 346° North 465 535 38,900 823 Climbing Los Angeles Center
14:31 36.3353 -119.2789 346° North 471 542 40,000 532 Climbing Los Angeles Center
14:32 36.4594 -119.3158 347° North 464 534 40,000  Level Los Angeles Center
14:33 36.5828 -119.3544 346° North 460 529 40,000  Level Los Angeles Center
14:34 36.7314 -119.4000 346° North 459 528 40,000  Level Los Angeles Center
14:35 36.8786 -119.4453 346° North 460 529 40,000  Level Oakland Center
14:36 37.0281 -119.4908 346° North 462 532 40,000  Level Oakland Center
14:37 37.1536 -119.5303 346° North 465 535 40,000  Level Oakland Center
14:38 37.2778 -119.5686 346° North 463 533 40,000  Level Oakland Center
14:39 37.4064 -119.6089 346° North 464 534 40,000  Level Oakland Center
14:40 37.5314 -119.6478 346° North 464 534 40,000  Level Oakland Center
14:41 37.6564 -119.6867 346° North 463 533 40,000  Level Oakland Center
14:42 37.7794 -119.7275 345° North 460 529 40,000  Level Oakland Center
14:43 37.9047 -119.7664 346° North 464 534 40,000  Level Oakland Center
14:44 38.0283 -119.8058 346° North 462 532 40,000  Level Oakland Center
14:45 38.1778 -119.8536 346° North 460 529 40,000  Level Oakland Center
14:47 38.3014 -119.8933 346° North 462 532 40,000  Level Oakland Center
14:48 38.4272 -119.9336 346° North 465 535 40,000  Level Oakland Center
14:49 38.5483 -119.9728 346° North 454 522 40,000  Level Oakland Center
14:50 38.6733 -120.0136 346° North 461 531 40,000  Level Oakland Center
14:51 38.7997 -120.0547 346° North 467 537 40,000  Level Oakland Center
14:52 38.9256 -120.0958 346° North 468 539 40,000  Level Oakland Center
14:53 39.0800 -120.1478 345° North 477 549 40,000  Level Oakland Center
14:54 39.2042 -120.1894 345° North 467 537 40,000  Level Oakland Center
14:55 39.3314 -120.2306 346° North 471 542 40,000  Level Oakland Center
14:56 39.4564 -120.2733 345° North 467 537 40,000  Level Oakland Center
14:57 39.5833 -120.3150 346° North 470 541 40,000  Level Oakland Center
14:58 39.7083 -120.3572 345° North 468 539 40,000  Level Oakland Center
14:59 39.8339 -120.4000 345° North 467 537 40,000  Level Oakland Center
15:00 39.9847 -120.4506 346° North 468 539 40,000  Level Oakland Center
15:01 40.1025 -120.4919 345° North 468 539 40,000  Level Oakland Center
15:02 40.2289 -120.5342 346° North 471 542 40,000  Level Oakland Center
15:03 40.3569 -120.5792 345° North 476 548 40,000  Level Oakland Center
15:04 40.4833 -120.6228 345° North 472 543 40,000  Level Oakland Center
15:05 40.6328 -120.6725 346° North 465 535 40,000  Level Oakland Center
15:06 40.7592 -120.7158 345° North 470 541 40,000  Level Oakland Center
15:07 40.8856 -120.7600 345° North 470 541 40,000  Level Oakland Center
15:08 41.0183 -120.8033 346° North 470 541 40,000  Level Seattle Center
15:09 41.1714 -120.8569 345° North 474 545 40,000  Level Seattle Center
15:10 41.2983 -120.9019 345° North 474 545 40,000  Level Seattle Center
15:11 41.4256 -120.9461 345° North 474 545 40,000  Level Seattle Center
15:12 41.5517 -120.9925 345° North 473 544 40,000  Level Seattle Center
15:13 41.6783 -121.0369 345° North 474 545 40,000  Level Seattle Center
15:14 41.8044 -121.0831 345° North 474 545 40,000  Level Seattle Center
15:15 41.9294 -121.1275 345° North 468 539 40,000  Level Seattle Center
15:16 42.0581 -121.1742 345° North 480 552 40,000  Level Seattle Center
15:17 42.1847 -121.2206 345° North 476 548 40,000  Level Seattle Center
15:18 42.3381 -121.2756 345° North 479 551 40,000  Level Seattle Center
15:19 42.4658 -121.3236 344° North 480 552 40,000  Level Seattle Center
15:20 42.5939 -121.3703 345° North 480 552 40,000  Level Seattle Center
15:21 42.7214 -121.4153 345° North 477 549 40,000  Level Seattle Center
15:22 42.8486 -121.4647 344° North 477 549 40,000  Level Seattle Center
15:23 42.9744 -121.5100 345° North 469 540 40,000  Level Seattle Center
15:24 43.1011 -121.5586 344° North 474 545 40,000  Level Seattle Center
15:26 43.2247 -121.6050 345° North 463 533 40,000  Level Seattle Center
15:27 43.3494 -121.6497 345° North 464 534 40,000  Level Seattle Center
15:28 43.4981 -121.7075 344° North 464 534 40,000  Level Seattle Center
15:29 43.6231 -121.7522 345° North 465 535 40,000  Level Seattle Center
15:30 43.7500 -121.7997 345° North 471 542 40,000  Level Seattle Center
15:31 43.8683 -121.8458 344° North 474 545 40,000  Level Seattle Center
15:32 44.0119 -121.9006 345° North 485 558 40,000  Level Seattle Center
15:33 44.1397 -121.9494 345° North 482 555 40,000  Level Seattle Center
15:34 44.2686 -121.9997 344° North 482 555 40,000  Level Seattle Center
15:35 44.3967 -122.0497 344° North 481 554 40,000  Level Seattle Center
15:36 44.5239 -122.0997 344° North 477 549 40,000  Level Seattle Center
15:37 44.6492 -122.1489 344° North 472 543 40,000  Level Seattle Center
15:38 44.7997 -122.2075 345° North 469 540 40,000  Level Seattle Center
15:39 44.9064 -122.2511 344° North 463 533 40,000  Level Seattle Center
15:40 45.0300 -122.3006 344° North 464 534 40,000  Level Seattle Center
15:41 45.1544 -122.3508 344° North 467 537 40,000  Level Seattle Center
15:42 45.3019 -122.4103 344° North 463 533 40,000  Level Seattle Center
15:43 45.4256 -122.4594 344° North 464 534 40,000 -246 Level Seattle Center
15:44 45.5478 -122.5097 344° North 462 532 39,500 -885 Descending Seattle Center
15:45 45.6694 -122.5594 344° North 459 528 38,200 -2,016 Descending Seattle Center
15:46 45.7958 -122.6033 346° North 466 536 35,400 -2,951 Descending Seattle Center
15:47 45.9242 -122.6333 351° North 468 539 32,200 -2,754 Descending Seattle Center
15:48 46.0503 -122.6656 350° North 463 533 29,800 -2,195 Descending Seattle Center
15:49 46.1725 -122.6931 351° North 451 519 27,700 -2,049 Descending Seattle Center
15:50 46.3047 -122.7192 352° North 438 504 25,600 -1,918 Descending Seattle Center
15:51 46.4186 -122.7192 360° North 420 483 23,800 -1,770 Descending Seattle Center
15:52 46.5306 -122.7139 North 407 468 22,000 -1,770 Descending Seattle Center
15:53 46.6400 -122.7114 North 398 458 20,200 -1,895 Descending Seattle Center
15:54 46.7583 -122.7075 North 394 453 18,400 -1,888 Descending Seattle Center
15:55 46.8136 -122.6972 North 386 444 17,400 -1,652 Descending Seattle Center
15:55 46.8631 -122.6447 36° Northeast 362 417 16,500 -1,522 Descending Seattle Center
15:56 46.9064 -122.5989 36° Northeast 353 406 15,700 -1,516 Descending Seattle Center
15:57 46.9953 -122.5378 25° Northeast 356 410 14,100 -1,525 Descending Seattle Center
15:58 47.0878 -122.5006 15° North 351 404 12,600 -1,525 Descending Seattle Center
15:59 47.1894 -122.4808 North 335 386 11,000 -1,359 Descending Seattle Center
16:00 47.2814 -122.4667 North 305 351 9,700 -1,219 Descending Seattle Center
16:01 47.3628 -122.4547 North 287 330 8,400 -1,241 Descending Seattle Center
16:02 47.4322 -122.4561 359° North 263 303 7,300 -1,138 Descending Seattle Center
16:03 47.5033 -122.4564 360° North 246 283 6,200 -984 Descending Seattle Center
16:04 47.5697 -122.4561 360° North 213 245 5,200 -992 Descending Seattle Center
16:05 47.6336 -122.4539 North 210 242 4,100 -942 Descending Seattle Center
16:06 47.6572 -122.3883 62° Northeast 204 235 3,300 -443 Descending Seattle Center
16:07 47.6319 -122.3233 120° Southeast 198 228 3,200 -362 Descending Seattle Center
16:08 47.5817 -122.3181 176° South 197 227 2,600 -706 Descending Seattle Center
16:08 47.5572 -122.3172 179° South 194 223 2,200 -885 Descending Seattle Center
16:09 47.5303 -122.3169 180° South 186 214 1,700 -885 Descending Seattle Center
16:09 47.5053 -122.3172 180° South 171 197 1,300 -716 Descending Seattle Center
16:10 47.4861 -122.3183 182° South 142 163 900 -443 Descending Seattle Center
16:11 47.4378 -122.3192 181° South 133 153 400 -353 Descending Seattle Center